Last 24 Hours

Squaw-Red Dog 6200'

Hourly Data | America/Los_Angeles
as of 3/29/20 3:27 PM PDT
Date & Time Temp (°F) RH (%) Dew Pt (°F) Wet Bulb (°F) Wind Dir (°) Wind Spd (mph) Wind Gust (mph) Latest Rain (In) New Snow (in) SnowDepth (in) Daily Min Temp (°F) Daily Max Temp (°F) Daily Rain (In)
3/29/20 - 1500 38.1 62 26.1 33.6 N | 349 6.4 11.5 0.00 2.6 109.9 29.6 38.9 0.00
3/29/20 - 1400 35.4 75 28.2 32.6 NNW | 348 7.8 13.5 0.00 2.9 110.7 29.6 37.9 0.00
3/29/20 - 1300 36.4 68 26.8 32.8 N | 351 7.5 13.0 0.00 3.2 110.8 29.6 37.9 0.00
3/29/20 - 1200 36.0 65 25.4 32.1 N | 3 5.1 10.3 0.00 3.6 7.4 29.6 37.8 0.00
3/29/20 - 1100 34.7 78 28.4 32.2 N | 350 2.1 6.2 0.00 3.4 110.2 29.6 37.8 0.00
3/29/20 - 1000 34.7 78 28.5 32.3 SSE | 160 1.4 4.5 0.00 3.3 9.0 29.6 37.2 0.00
3/29/20 - 0900 34.8 79 28.8 32.4 WSW | 250 1.5 4.5 0.00 2.4 9.5 29.6 34.8 0.00
3/29/20 - 0800 31.8 91 29.4 30.8 S | 180 1.6 4.1 0.00 3.2 10.9 29.6 31.8 0.00
3/29/20 - 0700 29.7 94 28.2 29.1 NW | 315 4.2 10.2 0.00 2.1 11.9 29.6 31.7 0.00
3/29/20 - 0600 31.3 84 27.1 29.7 NNW | 335 5.1 10.4 0.00 3.3 10.9 29.6 31.7 0.00
3/29/20 - 0500 31.4 82 26.5 29.6 NNW | 343 5.4 10.7 0.00 3.3 11.4 29.6 31.7 0.00
3/29/20 - 0400 31.0 86 27.2 29.6 NNW | 344 2.9 8.3 0.00 3.4 11.4 29.6 31.5 0.00
3/29/20 - 0300 30.0 95 28.7 29.4 WSW | 256 0.8 2.8 0.00 3.4 11.9 29.6 31.0 0.00
3/29/20 - 0200 30.0 94 28.6 29.4 WSW | 237 0.5 2.0 0.00 3.4 11.9 29.6 31.0 0.00
3/29/20 - 0100 29.8 94 28.2 29.1 W | 269 1.4 5.2 0.00 3.2 11.9 29.8 31.0 0.00
3/29/20 - 0000 31.0 87 27.6 29.7 W | 277 1.7 4.6 0.00 3.3 11.4 20.3 39.6 0.00
3/28/20 - 2300 31.0 90 28.4 30.0 SSW | 213 1.4 5.8 0.00 3.3 106.6 20.3 39.6 0.00
3/28/20 - 2200 31.9 86 28.4 30.5 NNW | 342 2.6 9.5 0.00 3.3 106.5 20.3 39.6 0.00
3/28/20 - 2100 32.3 82 27.4 30.5 NNW | 348 4.1 9.3 0.00 3.3 108.1 20.3 39.6 0.00
3/28/20 - 2000 32.3 83 27.8 30.6 NNW | 333 4.5 13.0 0.00 3.3 106.8 20.3 39.6 0.00
3/28/20 - 1900 33.0 82 28.1 31.1 N | 349 3.9 12.2 0.00 3.2 109.2 20.3 39.6 0.00
3/28/20 - 1800 33.8 82 28.9 31.9 N | 356 3.3 10.8 0.00 3.2 109.2 20.3 39.6 0.00
3/28/20 - 1700 36.0 70 27.2 32.7 NNW | 347 2.3 10.4 0.00 3.2 110.9 20.3 39.6 0.00
3/28/20 - 1600 37.4 69 28.1 33.8 N | 11 2.4 8.1 0.00 3.2 111.3 20.3 39.6 0.00
3/28/20 - 1500 37.6 67 27.4 33.7 NNE | 26 3.5 12.6 0.00 3.2 111.4 20.3 39.6 0.00
Max 38.1 95 29.4 33.8 - 7.8 13.5 0.00 3.6 111.4 29.8 39.6 0.00
Avg 33.2 81 27.8 31.2 - 3.3 8.5 0.00 3.2 62.0 - - -
Min 29.7 62 25.4 29.1 - 0.5 2.0 0.00 2.1 7.4 20.3 31.0 0.00
Total - - - - - - - 0.00 - - - - -